Regional Weather Roundup
Issued by NWS

Home | Current Version | Previous Version | Graphics & Text | Print | Product List | Glossary On
Versions: 1 2 3 4 5 6 7 8 9 10 11 12 13 14 15 16 17 18 19 20 21 22 23 24 25 26 27 28 29 30 31 32 33 34 35 36 37 38 39 40 41 42 43 44 45 46 47 48 49 50
000
ASUS43 KOAX 231102
RWRNE

WEATHER ROUNDUP FOR NEBRASKA
NATIONAL WEATHER SERVICE OMAHA NE
600 AM CDT SUN APR 23 2017

NOTES: SATELLITE DATA IS BEING USED TO AUGMENT CLOUD COVER ABOVE
       12000 FEET.
       "FAIR" INDICATES FEW OR NO CLOUDS BELOW 12,000 FEET WITH NO
       SIGNIFICANT WEATHER AND/OR OBSTRUCTIONS TO VISIBILITY.

  * THESE STATIONS DO NOT REPORT WEATHER SUCH AS RAIN...SNOW OR FOG.

NEZ001>004-019>022-054>056-231200-
NEBRASKA PANHANDLE

CITY           SKY/WX    TMP DP  RH WIND       PRES   REMARKS
SCOTTSBLUFF    CLOUDY    41  30  65 E10       29.99F
ALLIANCE       CLOUDY    36  30  79 SE14      30.00F WCI  27
CHADRON        CLOUDY    48  30  49 S22G31    29.93F
KIMBALL        CLOUDY    34  34 100 S7        30.03F WCI  28
SIDNEY         CLEAR     35  31  85 SW9       30.06F WCI  28
$$

NEZ057>060-069>072-079>082-231200-
SOUTHWEST NEBRASKA

CITY           SKY/WX    TMP DP  RH WIND       PRES   REMARKS
NORTH PLATTE   CLOUDY    34  28  79 S5        30.12F WCI  30
IMPERIAL       CLOUDY    38  31  76 S12       30.12F WCI  30
LEXINGTON      CLOUDY    32  26  78 S3        30.15F
MCCOOK         CLOUDY    33  29  85 SW7       30.15F WCI  27
OGALLALA       PTCLDY    35  30  82 CALM      30.10F
$$

NEZ005>010-023>029-035>040-094-231200-
NORTH CENTRAL NEBRASKA

CITY           SKY/WX    TMP DP  RH WIND       PRES   REMARKS
VALENTINE      CLEAR     39  28  64 SW9       30.05F WCI  33
AINSWORTH      CLEAR     39  32  76 S9        30.07F WCI  33
BROKEN BOW     CLEAR     28  23  81 CALM      30.12F
O`NEILL        CLEAR     41  31  67 S8        30.11F
ORD            CLEAR     36  28  73 SW5       30.13F WCI  32
THEDFORD       CLOUDY    36  29  76 S7        30.10F WCI  30
$$

NEZ041-046>049-061>064-073>077-083>087-231200-
SOUTH CENTRAL NEBRASKA

CITY           SKY/WX    TMP DP  RH WIND       PRES   REMARKS
GRAND ISLAND   CLEAR     38  29  70 SW5       30.17F WCI  34
AURORA         CLEAR     38  26  63 SW5       30.17F WCI  34
HASTINGS       CLEAR     42  28  57 SW3       30.18F
HEBRON         CLEAR     32  30  93 CALM      30.18S
HOLDREGE       CLOUDY    36  27  70 SW3       30.16S
KEARNEY *      CLEAR     36  27  69 S7        30.17S WCI  30
YORK           CLEAR     37  28  70 W5        30.18S WCI  34
$$

NEZ011>018-030>034-042>045-231200-
NORTHEAST NEBRASKA

CITY           SKY/WX    TMP DP  RH WIND       PRES   REMARKS
NORFOLK        CLEAR     37  30  75 S8        30.14F WCI  31
ALBION         CLEAR     41  30  66 SE3       30.15F
BLAIR          CLEAR     46  33  61 W3        30.16S
FREMONT        CLEAR     39  34  82 CALM      30.16F
TEKAMAH        CLEAR     41  37  86 S3        30.16S
WAYNE          CLEAR     37  31  81 S5        30.14F WCI  33
$$

NEZ050>053-065>068-078-088>093-231200-
SOUTHEAST NEBRASKA

CITY           SKY/WX    TMP DP  RH WIND       PRES   REMARKS
LINCOLN        CLEAR     34  31  88 CALM      30.19S
OMAHA EPPLEY   CLEAR     42  35  76 SE3       30.16F
BEATRICE       CLEAR     35  33  91 CALM      30.18R
FALLS CITY     CLEAR     38  33  82 CALM      30.17S
NEBRASKA CITY  CLEAR     42  29  58 W8        30.17S
PLATTSMOUTH    CLEAR     45  25  44 CALM      30.17S
$$

NEZ044-045-051>053-067-231200-
OMAHA AREA

CITY           SKY/WX    TMP DP  RH WIND       PRES   REMARKS
OMAHA EPPLEY   CLEAR     42  35  76 SE3       30.16F
BLAIR          CLEAR     46  33  61 W3        30.16S
FREMONT        CLEAR     39  34  82 CALM      30.16F
MILLARD        CLEAR     39  38  95 CALM      30.17S
OFFUTT AFB     CLEAR     32  30  93 CALM      30.16F
PLATTSMOUTH    CLEAR     45  25  44 CALM      30.17S
WAHOO          FAIR      37  33  85 CALM      30.17S
$$




USA.gov is the U.S. government's official web portal to all federal, state and local government web resources and services.